Glens Falls, NY

1:25 AM EDT on October 21, 2019 (GMT -0400)
Bennett Memorial

Weather History for KGFL - August, 2019

Change the Weather History Date:

Thursday, August 29, 2019

  Actual Average Record
Temperature  
Mean Temperature 67 °F 65 °F  
Max Temperature 80 °F 77 °F 93 °F (1953)
Min Temperature 53 °F 53 °F 31 °F (1982)
Degree Days  
Heating Degree Days 0 3  
Month to date heating degree days 24 39  
Since 1 June heating degree days 94 150  
Since 1 July heating degree days 24 60  
Cooling Degree Days 2 2  
Month to date cooling degree days 98 100  
Year to date cooling degree days 394 320  
Since 1 June cooling degree days 385 308  
Growing Degree Days 17 (Base 50)    
Moisture  
Dew Point 57 °F    
Average Humidity 71    
Maximum Humidity 100    
Minimum Humidity 42    
Precipitation  
Precipitation 0.00 in 0.10 in 3.08 in (1949)
Month to date precipitation 2.85 3.48  
Year to date precipitation 28.79 25.61  
Sea Level Pressure  
Sea Level Pressure 29.86 in    
Wind  
Wind Speed 4 mph (West)    
Max Wind Speed 16 mph    
Max Gust Speed 21 mph    
Visibility 4 miles    
Events Fog    
T = Trace of Precipitation, MM = Missing Value Source: NWS Daily Summary

Daily Weather History Graph

Daily Weather History Graph

Search for Another Location

Airport or City:

Astronomy

Aug. 29, 2019 Rise Set
Actual Time 6:14 AM EDT 7:35 PM EDT
Civil Twilight 5:45 AM EDT 8:04 PM EDT
Nautical Twilight 5:09 AM EDT 8:40 PM EDT
Astronomical Twilight 4:31 AM EDT 9:17 PM EDT
Moon 4:52 AM EDT (8/29) 7:32 PM EDT (8/29)
Length of Visible Light 14h 19m
Length of Day
13h 20m
Waning Crescent, 1% of the Moon is Illuminated
Aug 29
Waning Crescent
Aug 30
New
Sep 5
First Quarter
Sep 14
Full
Sep 21
Last Quarter

Hourly Weather History & Observations

Time (EDT) Temp. Dew Point Humidity Pressure Visibility Wind Dir Wind Speed Gust Speed Precip Events Conditions
12:53 AM 63.0 °F 61.0 °F 93% 29.86 in 7.0 mi Calm Calm - N/A   Clear
1:16 AM 62.1 °F 61.0 °F 96% 29.85 in 1.5 mi Calm Calm - N/A   Partly Cloudy
1:27 AM 61.0 °F 60.1 °F 97% 29.85 in 4.0 mi Calm Calm - N/A   Clear
1:31 AM 60.1 °F 60.1 °F 100% 29.85 in 1.5 mi Calm Calm - N/A   Partly Cloudy
1:33 AM 60.1 °F 59.0 °F 96% 29.85 in 0.8 mi Calm Calm - N/A   Mist
1:43 AM 60.1 °F 59.0 °F 96% 29.85 in 0.2 mi Calm Calm - N/A Fog Fog
1:51 AM 59.0 °F 57.2 °F 94% 29.85 in 0.8 mi Calm Calm - N/A   Mist
1:53 AM 60.1 °F 57.9 °F 93% 29.85 in 1.0 mi Calm Calm - N/A   Mist
1:56 AM 60.1 °F 59.0 °F 96% 29.85 in 2.0 mi ESE 3.5 mph - N/A   Scattered Clouds
1:59 AM 59.0 °F 57.9 °F 96% 29.84 in 1.0 mi East 3.5 mph - N/A   Mist
2:06 AM 60.1 °F 59.0 °F 96% 29.84 in 0.8 mi Calm Calm - N/A   Mist
2:09 AM 59.0 °F 59.0 °F 100% 29.84 in 1.2 mi NW 3.5 mph - N/A   Scattered Clouds
2:14 AM 59.0 °F 59.0 °F 100% 29.84 in 0.8 mi NNW 3.5 mph - N/A   Mist
2:22 AM 59.0 °F 59.0 °F 100% 29.84 in 1.2 mi Calm Calm - N/A   Scattered Clouds
2:25 AM 59.0 °F 59.0 °F 100% 29.84 in 3.0 mi Calm Calm - N/A   Scattered Clouds
2:29 AM 59.0 °F 57.9 °F 96% 29.84 in 2.0 mi Calm Calm - N/A   Mostly Cloudy
2:32 AM 59.0 °F 57.9 °F 96% 29.84 in 0.8 mi Calm Calm - N/A   Mist
2:53 AM 57.0 °F 55.9 °F 96% 29.84 in 0.8 mi Calm Calm - N/A   Mist
2:58 AM 57.0 °F 55.9 °F 96% 29.84 in 2.5 mi Calm Calm - N/A   Overcast
3:05 AM 57.0 °F 57.0 °F 100% 29.84 in 5.0 mi Calm Calm - N/A   Overcast
3:15 AM 57.0 °F 57.0 °F 100% 29.84 in 1.8 mi Calm Calm - N/A   Overcast
3:24 AM 57.9 °F 57.0 °F 97% 29.84 in 0.2 mi Calm Calm - N/A Fog Fog
3:33 AM 57.9 °F 57.9 °F 100% 29.84 in 0.5 mi Calm Calm - N/A Fog Fog
3:53 AM 59.0 °F 59.0 °F 100% 29.84 in 0.2 mi Calm Calm - N/A Fog Fog
4:17 AM 57.9 °F 57.0 °F 97% 29.84 in 0.8 mi Calm Calm - N/A   Mist
4:30 AM 57.9 °F 57.0 °F 97% 29.85 in 1.2 mi Calm Calm - N/A   Overcast
4:41 AM 55.9 °F 55.9 °F 100% 29.85 in 0.8 mi Calm Calm - N/A   Mostly Cloudy
4:53 AM 57.0 °F 55.9 °F 96% 29.85 in 0.5 mi Calm Calm - N/A Fog Fog
5:05 AM 55.9 °F 55.0 °F 97% 29.86 in 0.2 mi Calm Calm - N/A Fog Fog
5:23 AM 55.9 °F 55.0 °F 97% 29.86 in 0.5 mi Calm Calm - N/A Fog Fog
5:39 AM 57.0 °F 55.9 °F 96% 29.86 in 0.2 mi Calm Calm - N/A Fog Fog
5:53 AM 55.0 °F 55.0 °F 100% 29.86 in 0.2 mi Calm Calm - N/A Fog Fog
6:26 AM 55.9 °F 55.0 °F 97% 29.87 in 0.2 mi Calm Calm - N/A Fog Fog
6:40 AM 57.0 °F 55.9 °F 96% 29.87 in 0.8 mi Calm Calm - N/A   Overcast
6:53 AM 57.9 °F 57.9 °F 100% 29.88 in 0.8 mi Calm Calm - N/A   Overcast
7:11 AM 57.9 °F 57.0 °F 97% 29.87 in 0.2 mi Calm Calm - N/A Fog Fog
7:53 AM 60.1 °F 59.0 °F 96% 29.88 in 0.2 mi Calm Calm - N/A Fog Fog
8:01 AM 60.1 °F 59.0 °F 96% 29.87 in 0.5 mi Calm Calm - N/A Fog Fog
8:23 AM 60.1 °F 59.0 °F 96% 29.87 in 1.0 mi Calm Calm - N/A   Overcast
8:34 AM 60.1 °F 60.1 °F 100% 29.87 in 3.0 mi Calm Calm - N/A   Overcast
8:53 AM 61.0 °F 60.1 °F 97% 29.88 in 10.0 mi Calm Calm - N/A   Overcast
9:22 AM 62.1 °F 60.1 °F 93% 29.88 in 10.0 mi Calm Calm - N/A   Mostly Cloudy
9:51 AM 64.4 °F 60.8 °F 88% 29.88 in 9.0 mi Calm Calm - N/A   Partly Cloudy
9:53 AM 66.0 °F 61.0 °F 84% 29.88 in 9.0 mi SSE 3.5 mph - N/A   Partly Cloudy
10:53 AM 70.0 °F 60.1 °F 71% 29.88 in 10.0 mi South 3.5 mph - N/A   Clear
11:53 AM 73.0 °F 61.0 °F 66% 29.88 in 10.0 mi SSE 6.9 mph - N/A   Partly Cloudy
12:53 PM 73.9 °F 60.1 °F 62% 29.87 in 10.0 mi North 5.8 mph - N/A   Overcast
1:03 PM 73.0 °F 61.0 °F 66% 29.87 in 10.0 mi North 6.9 mph - N/A   Mostly Cloudy
1:15 PM 75.0 °F 61.0 °F 62% 29.87 in 10.0 mi Variable 5.8 mph - N/A   Mostly Cloudy
1:53 PM 75.0 °F 57.9 °F 55% 29.86 in 10.0 mi Calm Calm - N/A   Mostly Cloudy
2:53 PM 79.0 °F 53.1 °F 40% 29.85 in 10.0 mi WNW 13.8 mph 20.7 mph N/A   Scattered Clouds
3:53 PM 78.1 °F 53.1 °F 42% 29.85 in 10.0 mi West 11.5 mph 18.4 mph N/A   Partly Cloudy
4:53 PM 77.0 °F 53.1 °F 43% 29.86 in 10.0 mi WNW 12.7 mph 20.7 mph N/A   Scattered Clouds
5:53 PM 73.9 °F 51.1 °F 45% 29.87 in 10.0 mi West 8.1 mph - N/A   Clear
6:53 PM 72.0 °F 54.0 °F 53% 29.89 in 10.0 mi West 5.8 mph - N/A   Clear
7:53 PM 66.9 °F 54.0 °F 63% 29.91 in 10.0 mi WSW 5.8 mph - N/A   Clear
8:53 PM 61.0 °F 55.0 °F 81% 29.95 in 10.0 mi Calm Calm - N/A   Clear
9:53 PM 63.0 °F 54.0 °F 72% 29.95 in 10.0 mi West 6.9 mph - N/A   Clear
10:53 PM 57.9 °F 53.1 °F 84% 29.96 in 10.0 mi Calm Calm - N/A   Clear
11:53 PM 54.0 °F 53.1 °F 97% 29.95 in 10.0 mi Calm Calm - N/A   Clear